Location: Newark
(39.0622°N, 106.5590°E)
Time: 21:29:04
(UTC+00:00)

UWE-3 - Pass Details

Date: 25 February 2020
Orbit: 585 x 683 km, 97.6° (Epoch: 09 April)

Event Time Altitude Azimuth Distance (km) Brightness Sun altitude
Rises 21:17:17 0° 30° (NNE) 3,049 ? -26.9°
Reaches altitude 10° 21:20:11 10° 49° (NE) 2,132 ? -26.3°
Maximum altitude 21:23:25 18° 92° (E) 1,639 ? -25.7°
Drops below altitude 10° 21:26:36 10° 136° (SE) 2,116 ? -25.1°
Sets 21:29:27 0° 155° (SSE) 3,017 ? -24.5°
